Temperature
23 20 20 20 21 21 21 21 21 21 22 21 20 20 20 21 21 20 20 20 20 20 20 20 20 19 19 19 18 18 18 18 17 17 17 17 16 16 16 16 16 15 15 15
20 20 22 22 22 22 22 21 21 21 22 22 20 20 20 20 20 21 20 20 20 20 20 20 19 19 19 19 18 18 18 18 17 17 17 17 16 16 16 16 15 15 15 15
21 21 23 23 23 22 22 21 21 21 21 21 20 19 20 20 21 21 21 20 20 20 20 20 19 19 19 19 18 18 18 17 17 17 17 16 16 16 16 15 15 15 15 15
21 23 23 23 23 23 21 23 23 22 20 19 20 18 19 19 19 19 20 20 20 20 20 20 19 19 19 19 18 18 18 17 17 17 17 16 16 16 15 15 15 15 15 15
21 22 23 23 23 23 22 23 22 22 20 19 19 18 18 18 19 19 19 20 20 20 20 20 20 19 19 19 18 18 18 17 17 17 17 16 16 16 15 15 15 15 15 15
22 23 23 23 23 23 23 21 20 18 18 18 19 18 18 18 19 19 19 20 20 20 20 20 20 19 19 19 18 18 18 17 17 17 17 16 16 16 15 15 15 15 15 15
21 22 23 23 22 22 21 18 17 18 17 18 19 19 18 19 20 20 19 20 20 20 20 20 19 19 19 18 18 18 18 17 17 17 16 16 16 16 15 15 15 15 15 15
19 20 21 22 22 21 21 19 18 18 17 18 19 19 19 20 20 21 21 20 20 20 20 19 19 19 19 18 18 18 17 17 17 17 16 16 16 16 15 15 15 15 15 15
19 19 21 22 22 22 21 19 19 17 18 18 18 19 20 20 19 19 20 20 19 20 20 19 19 19 18 18 18 18 17 17 17 16 16 16 16 16 15 15 15 15 15 14
19 20 21 22 22 22 21 20 17 18 18 17 18 18 18 18 18 19 18 19 19 19 19 19 19 19 18 18 18 17 17 17 17 16 16 16 16 15 15 15 15 15 15 14
19 19 19 20 21 21 21 20 18 16 16 17 17 18 19 18 18 18 18 19 19 19 19 19 18 18 18 18 17 17 17 17 16 16 16 16 16 15 15 15 15 15 14 14
18 16 17 19 20 20 20 20 18 17 17 16 16 17 19 19 19 19 19 19 19 19 19 19 18 18 18 17 17 17 17 16 16 16 16 16 15 15 15 15 15 14 14 14
18 16 17 18 18 19 20 20 18 16 15 15 16 17 19 18 19 19 19 19 19 19 19 18 18 18 18 17 17 17 17 16 16 16 16 15 15 15 15 15 14 14 14 14
17 16 16 17 17 18 19 20 19 17 16 16 16 18 18 18 17 18 18 18 18 18 18 18 18 18 17 17 17 16 16 16 16 15 15 15 15 15 14 14 14 14 14 14
16 16 17 17 18 18 19 19 19 18 17 16 17 17 18 18 17 18 18 18 18 18 18 18 18 17 17 17 16 16 16 16 15 15 15 15 15 15 14 14 14 14 14 14
15 16 16 17 18 18 18 18 18 18 18 17 17 17 17 18 18 18 18 18 18 18 18 17 17 17 17 16 16 16 16 15 15 15 15 15 15 14 14 14 14 14 13 13
14 15 15 15 16 17 17 18 18 18 18 18 17 17 17 17 17 18 18 18 18 18 17 17 17 17 17 16 16 16 15 15 15 15 14 14 14 14 14 14 14 13 13 13
14 14 13 14 15 16 17 17 18 18 17 17 17 17 17 18 18 19 19 18 18 17 17 17 17 17 16 16 16 16 15 15 15 14 14 14 14 14 14 13 13 13 13 13
14 14 13 13 14 15 16 17 18 17 17 17 16 16 17 17 17 17 18 18 18 18 17 17 17 17 16 16 15 15 15 15 14 14 14 14 14 14 13 13 13 13 13 13
13 13 13 13 14 14 16 17 18 17 16 16 16 16 16 16 14 15 17 17 18 17 17 17 17 16 16 15 15 15 15 14 14 14 14 14 13 13 13 13 13 13 13 13
14 13 12 12 13 14 15 17 17 16 15 17 17 17 16 15 15 17 17 17 17 17 17 17 16 16 16 15 15 15 14 14 14 14 14 13 13 13 13 13 13 12 12 12
13 12 12 11 12 13 15 16 15 15 16 17 17 17 17 17 16 16 16 17 17 17 16 16 16 16 15 15 15 15 14 14 14 14 13 13 13 13 12 12 12 12 12 12
12 13 12 12 13 15 16 16 17 17 16 16 16 17 16 16 16 16 16 16 16 16 16 16 16 15 15 15 15 14 14 14 14 13 13 13 13 12 12 12 12 12 11 11
12 12 12 12 13 14 15 16 16 16 16 16 16 16 16 16 15 15 15 15 15 15 15 15 15 15 15 14 14 14 14 14 13 13 13 12 12 12 12 12 11 11 11 11
12 12 11 11 12 13 14 15 15 15 16 16 16 15 15 15 15 15 15 15 15 15 15 15 15 14 14 14 14 14 13 13 13 13 12 12 12 12 12 11 11 11 11 11
11 11 11 11 13 12 13 14 14 14 15 15 15 15 14 15 15 14 14 14 14 14 14 14 14 14 14 14 13 13 13 13 13 12 12 12 11 11 11 11 11 11 11 11
Wind_Speed
1 3 3 8 8 7 5 3 3 4 4 3 5 6 6 6 6 6 6 6 6 7 6 6 7 7 7 6 6 6 6 5 5 4 3 3 2 2 2 2 4 5 6 6
3 3 9 7 5 4 3 2 1 2 2 3 4 5 6 6 8 9 9 8 8 6 4 5 6 6 7 7 6 6 7 6 5 4 3 3 2 1 1 1 3 4 4 4
5 6 4 3 3 3 2 4 3 3 1 1 1 3 3 4 4 6 7 8 8 9 9 7 7 7 7 7 7 7 7 6 5 5 4 3 3 3 3 2 1 1 3 3
3 4 2 2 2 3 2 4 3 2 3 2 2 2 6 5 3 5 6 7 8 8 8 8 7 7 8 7 7 7 7 6 5 5 5 5 3 2 2 1 1 0 2 3
3 2 1 2 4 3 4 3 1 1 2 1 1 3 7 2 4 6 7 8 8 8 9 9 8 8 8 7 7 7 7 6 5 5 6 6 4 2 1 1 1 0 0 2
4 3 3 4 2 2 2 3 6 5 4 2 5 4 5 4 8 6 7 7 7 8 8 7 7 6 6 6 7 7 7 5 5 5 5 6 5 4 3 2 1 0 0 0
4 3 2 2 2 3 4 6 4 4 3 5 3 3 7 7 6 7 8 7 7 7 8 7 7 7 7 7 7 7 7 5 4 5 5 5 6 5 5 4 3 2 1 1
1 4 3 2 5 4 3 8 6 4 4 5 3 3 5 3 3 5 6 7 7 7 7 8 8 8 8 8 7 7 7 6 5 5 5 5 5 4 3 4 3 3 3 3
4 5 4 2 3 6 4 3 7 6 2 3 4 3 4 3 4 4 6 6 7 8 8 7 6 6 7 8 7 8 8 6 5 5 5 4 4 4 4 3 3 3 3 3
5 3 5 3 2 0 5 6 5 3 2 3 4 3 4 3 3 4 5 6 6 6 6 5 5 5 5 7 6 6 7 7 5 5 4 4 4 4 4 3 3 3 3 3
3 3 4 2 3 4 2 2 4 4 4 4 3 6 5 8 7 7 7 7 8 8 7 6 5 4 4 5 5 5 5 5 5 4 4 3 3 3 3 3 3 3 2 3
2 4 2 6 6 4 5 5 6 4 3 4 3 7 4 6 6 7 7 7 7 8 7 6 5 4 3 4 5 5 5 5 5 5 4 4 3 3 3 3 3 2 2 3
3 5 2 5 5 3 0 3 4 5 4 4 4 6 3 0 2 3 5 5 5 6 5 5 4 4 4 4 5 5 4 4 4 4 4 3 3 3 3 3 3 3 3 2
4 4 6 7 5 3 4 5 3 4 4 5 7 7 4 2 2 3 4 5 5 5 6 5 5 4 4 4 5 5 4 4 4 4 4 3 3 4 4 4 3 3 3 3
4 3 4 6 6 5 6 8 6 6 8 8 7 7 7 6 6 6 5 5 4 5 5 6 6 5 4 4 4 4 4 4 4 4 3 3 3 3 3 3 3 2 2 2
2 2 1 4 4 5 6 8 7 7 6 7 6 7 7 5 3 3 4 6 6 6 6 6 6 6 5 5 5 5 4 4 4 4 4 3 3 2 3 3 3 2 2 2
0 2 1 4 5 4 6 7 6 4 3 6 7 8 4 3 4 6 7 7 7 7 7 7 7 7 6 6 6 6 5 4 4 4 4 3 3 3 3 3 2 3 3 2
5 3 2 2 2 5 7 4 3 4 2 3 4 4 4 5 6 6 6 8 9 8 7 8 7 6 6 5 5 4 4 4 4 4 4 3 3 3 3 3 3 3 2 2
7 6 3 2 3 6 6 4 1 3 3 3 3 3 2 1 2 3 4 6 9 9 8 7 7 6 6 5 5 4 4 4 4 4 4 4 4 4 4 4 4 3 2 2
3 5 5 3 3 6 6 5 3 1 4 4 1 2 2 2 0 6 5 4 4 5 6 6 5 4 5 5 5 6 5 5 5 6 5 5 5 5 5 5 3 2 2 3
1 2 4 5 6 7 6 5 2 2 6 4 2 2 2 4 6 6 5 3 3 4 5 5 5 5 6 6 6 6 5 6 6 5 5 4 4 5 5 3 3 3 3 2
5 4 5 5 5 7 4 1 3 6 4 3 1 2 2 3 3 3 3 3 2 3 4 5 5 4 4 5 7 6 6 6 4 4 5 4 4 4 3 3 3 3 3 3
5 6 5 7 7 5 3 4 4 3 2 2 2 3 3 2 3 3 3 3 2 3 4 4 5 4 3 5 6 7 6 4 4 4 5 4 4 4 4 4 4 3 3 3
4 1 2 3 5 4 4 3 3 2 2 3 2 2 2 2 3 3 3 2 2 2 3 3 3 3 3 4 5 6 5 5 5 5 5 5 4 4 4 4 4 4 4 4
5 1 1 4 5 4 4 4 4 5 3 2 3 2 2 3 3 3 2 2 2 1 1 2 3 3 4 3 4 4 4 5 5 5 5 5 5 5 4 4 5 6 6 6
5 5 5 7 6 4 7 7 5 4 4 3 2 3 3 2 3 2 2 1 1 1 1 1 2 3 3 3 3 3 4 5 6 5 5 5 4 4 4 4 3 5 5 7
Wind_Direction
8 88 203 216 201 192 187 187 205 229 218 174 202 222 230 206 188 187 179 177 178 189 194 171 157 151 144 141 139 141 137 136 123 112 106 97 86 66 57 72 91 98 105 110
35 247 230 216 208 198 188 187 205 245 207 179 212 241 230 205 197 192 183 180 181 178 171 164 160 155 152 154 152 149 150 147 141 140 141 138 132 116 100 69 78 101 113 119
196 237 227 191 209 201 211 186 199 204 255 6 87 319 264 247 207 198 186 179 180 178 178 175 169 170 162 161 162 159 160 151 145 136 116 92 67 51 39 37 36 80 126 133
232 250 204 170 208 157 233 223 187 155 113 255 158 255 270 240 226 202 196 183 182 182 176 174 169 167 169 174 164 158 158 151 148 138 134 136 135 149 201 202 208 291 127 140
261 238 179 196 221 174 209 225 179 182 152 305 245 181 275 233 221 220 205 195 186 179 173 173 171 170 170 164 157 156 153 151 152 147 147 143 145 171 179 158 138 76 48 141
246 241 197 201 215 193 156 49 25 47 78 302 239 179 265 225 211 205 200 193 182 171 168 164 161 152 149 145 147 151 150 158 162 152 150 151 157 160 150 156 164 194 201 188
307 290 261 155 74 357 83 85 27 357 5 257 242 178 246 234 201 180 175 180 176 163 157 156 154 154 153 149 153 154 152 163 171 161 162 168 168 165 169 178 183 175 166 183
237 277 258 194 172 186 174 140 157 205 231 278 314 220 264 257 178 154 151 150 149 153 158 162 167 166 164 161 160 160 165 168 171 171 174 178 171 170 182 188 183 186 187 198
182 254 278 225 183 155 152 177 176 156 237 266 283 295 327 28 91 113 127 136 156 161 165 169 169 167 165 167 172 171 169 169 175 177 169 170 177 173 179 188 184 187 194 201
160 238 282 272 59 24 162 159 94 118 186 270 289 252 232 207 167 159 158 157 169 168 159 156 162 168 175 178 178 174 170 172 179 181 180 178 187 185 181 175 178 182 192 189
128 159 301 332 205 212 155 136 124 137 162 172 258 268 222 193 186 180 183 177 174 173 168 169 171 172 171 170 166 165 171 168 174 179 180 173 180 181 172 177 195 195 191 190
119 128 234 262 269 216 178 181 151 162 230 181 196 266 277 195 190 182 184 185 180 175 173 171 167 156 153 167 170 170 169 173 184 183 171 171 171 170 171 183 200 197 191 195
108 111 70 335 332 352 260 197 165 147 144 175 191 261 322 247 167 182 179 186 186 175 166 161 159 162 168 179 176 173 171 176 184 176 164 162 162 173 188 199 202 196 194 194
107 120 170 199 220 251 266 266 215 150 177 220 224 242 284 249 219 217 202 185 176 178 170 166 173 182 182 179 176 177 183 182 172 165 163 167 180 189 195 196 196 198 190 184
97 167 214 234 248 249 250 255 240 212 204 207 232 225 243 228 211 208 199 182 170 177 178 182 183 187 186 185 188 187 184 180 172 166 172 192 197 185 182 186 194 192 187 193
62 177 259 284 277 277 268 264 255 239 222 220 230 246 246 232 199 189 186 178 187 195 197 195 187 185 188 190 193 192 191 188 171 174 189 200 191 181 182 194 196 189 193 194
106 135 128 270 299 335 271 250 231 221 219 197 219 239 237 215 209 204 200 193 198 204 202 196 193 195 198 199 190 189 191 185 179 184 191 189 182 188 200 194 180 192 197 191
170 149 161 243 331 245 249 265 210 189 245 227 221 240 219 218 224 218 200 194 205 209 206 200 199 198 202 199 189 183 178 180 180 183 189 191 182 189 197 185 184 199 191 188
180 163 162 174 236 275 286 290 247 196 267 280 241 245 248 234 26 305 246 213 212 207 206 202 198 196 195 195 184 171 181 184 185 192 196 199 190 189 192 198 202 200 190 203
131 138 152 171 207 241 248 275 281 148 256 293 257 216 206 101 182 262 271 250 235 214 202 191 185 183 188 194 173 168 183 187 199 206 205 202 194 193 198 204 201 199 193 209
124 141 179 198 223 256 261 287 47 182 250 283 237 205 193 204 225 247 267 255 230 206 191 173 169 185 194 187 170 176 186 201 208 204 200 200 197 199 197 197 196 186 190 196
195 194 202 183 209 251 274 118 176 230 263 269 234 204 207 233 264 275 266 248 218 178 169 168 177 190 189 176 171 182 201 208 198 190 192 201 200 203 195 184 198 189 183 191
204 196 195 198 219 244 231 208 233 215 228 246 238 240 207 230 280 288 279 257 216 185 177 176 176 180 188 185 179 191 210 198 184 188 198 201 202 203 193 190 197 196 192 195
277 223 177 246 264 276 282 295 309 271 253 267 259 237 211 235 256 267 267 255 215 185 181 169 159 176 213 213 203 203 206 192 184 194 202 200 199 201 200 198 197 198 204 206
240 227 213 261 277 305 312 310 305 302 304 328 325 288 235 213 236 243 251 255 233 221 210 181 177 197 227 231 220 210 198 185 191 204 207 204 206 205 207 213 215 211 213 208
226 205 203 236 242 239 270 279 288 298 289 275 274 299 292 236 225 225 226 245 254 242 239 217 218 217 232 227 233 229 203 190 188 202 211 209 209 208 207 213 247 243 228 227
Height
1519 1524 1529 1525 1523 1524 1526 1530 1533 1528 1522 1524 1527 1527 1524 1523 1524 1524 1525 1526 1527 1528 1530 1531 1532 1533 1534 1535 1536 1537 1537 1538 1538 1539 1539 1539 1539 1539 1539 1539 1539 1539 1539 1538
1525 1526 1519 1517 1519 1520 1524 1529 1530 1526 1521 1523 1527 1526 1522 1520 1521 1521 1522 1523 1525 1527 1529 1530 1531 1532 1533 1533 1535 1536 1537 1538 1538 1539 1539 1539 1540 1540 1540 1539 1539 1539 1539 1539
1526 1521 1514 1517 1519 1522 1524 1527 1528 1527 1524 1523 1527 1531 1525 1520 1519 1520 1520 1521 1523 1524 1526 1528 1529 1530 1531 1532 1534 1535 1536 1537 1538 1538 1539 1539 1539 1539 1539 1539 1539 1539 1539 1539
1520 1515 1514 1517 1519 1520 1527 1519 1520 1523 1531 1538 1532 1547 1530 1522 1520 1519 1519 1520 1521 1522 1524 1526 1527 1529 1530 1531 1532 1534 1535 1537 1537 1538 1538 1538 1538 1539 1539 1539 1539 1539 1539 1539
1520 1515 1515 1518 1517 1516 1520 1515 1518 1521 1529 1536 1534 1543 1535 1523 1522 1519 1517 1518 1519 1521 1522 1523 1525 1527 1528 1530 1531 1533 1534 1536 1537 1537 1538 1538 1538 1538 1539 1539 1539 1538 1538 1538
1516 1513 1513 1513 1512 1512 1514 1518 1523 1529 1536 1547 1536 1541 1538 1525 1518 1515 1515 1516 1517 1519 1521 1522 1524 1526 1527 1529 1530 1532 1533 1534 1536 1537 1537 1537 1538 1538 1538 1538 1538 1538 1537 1537
1521 1515 1511 1511 1515 1515 1517 1533 1549 1550 1555 1549 1531 1535 1531 1513 1509 1510 1511 1513 1516 1518 1519 1521 1523 1525 1526 1527 1529 1531 1532 1533 1535 1536 1536 1537 1537 1537 1537 1537 1537 1537 1536 1536
1531 1529 1514 1511 1514 1519 1520 1530 1550 1557 1557 1547 1531 1534 1522 1508 1507 1508 1510 1512 1515 1517 1519 1520 1522 1523 1525 1526 1528 1530 1531 1532 1533 1534 1535 1536 1536 1536 1536 1536 1536 1536 1535 1535
1530 1528 1512 1509 1509 1512 1520 1526 1527 1541 1543 1548 1540 1528 1516 1509 1509 1510 1511 1513 1515 1516 1518 1519 1521 1523 1524 1525 1527 1528 1529 1531 1532 1533 1534 1534 1535 1535 1535 1535 1535 1535 1534 1534
1519 1525 1515 1509 1509 1510 1513 1519 1532 1540 1549 1554 1542 1534 1529 1517 1514 1512 1512 1513 1514 1516 1517 1519 1520 1521 1523 1524 1525 1527 1528 1529 1530 1531 1532 1533 1533 1533 1533 1534 1533 1533 1533 1533
1515 1525 1522 1515 1515 1517 1517 1520 1527 1538 1542 1551 1551 1538 1513 1512 1510 1510 1511 1511 1513 1515 1516 1517 1519 1520 1521 1522 1524 1525 1526 1527 1528 1529 1530 1531 1531 1531 1532 1532 1532 1532 1532 1532
1515 1525 1529 1521 1512 1508 1512 1516 1525 1538 1540 1542 1547 1536 1506 1506 1506 1507 1509 1510 1511 1513 1514 1515 1517 1518 1519 1520 1521 1523 1524 1525 1526 1527 1528 1528 1529 1529 1530 1530 1530 1530 1530 1530
1515 1525 1535 1532 1525 1515 1514 1513 1517 1526 1535 1541 1544 1532 1507 1506 1506 1507 1508 1509 1510 1512 1512 1514 1515 1516 1517 1518 1519 1520 1521 1522 1524 1525 1525 1526 1526 1527 1527 1527 1528 1528 1528 1528
1512 1523 1531 1535 1529 1521 1518 1514 1514 1523 1534 1535 1530 1522 1511 1509 1507 1507 1507 1508 1509 1510 1511 1512 1513 1514 1515 1516 1517 1518 1519 1520 1521 1522 1522 1523 1523 1524 1524 1525 1525 1525 1525 1525
1513 1522 1521 1520 1516 1515 1514 1513 1512 1516 1520 1525 1519 1516 1510 1506 1505 1505 1505 1506 1507 1508 1509 1510 1510 1512 1513 1514 1514 1515 1516 1517 1518 1519 1520 1520 1521 1521 1521 1522 1522 1522 1523 1523
1515 1520 1520 1519 1513 1513 1513 1509 1509 1509 1510 1513 1512 1511 1503 1502 1502 1503 1503 1504 1505 1505 1506 1507 1508 1509 1510 1511 1511 1513 1514 1515 1515 1516 1517 1517 1518 1518 1518 1519 1519 1520 1520 1520
1519 1521 1525 1527 1518 1515 1518 1509 1507 1506 1504 1506 1510 1506 1500 1501 1500 1500 1500 1501 1502 1502 1503 1504 1505 1506 1507 1507 1508 1509 1511 1512 1513 1513 1514 1514 1514 1515 1515 1516 1516 1517 1517 1517
1517 1521 1527 1528 1524 1527 1513 1501 1500 1502 1501 1500 1499 1498 1497 1497 1496 1496 1497 1497 1498 1499 1499 1500 1502 1503 1504 1505 1506 1507 1508 1509 1510 1510 1511 1511 1512 1512 1512 1513 1513 1514 1514 1515
1509 1517 1525 1529 1529 1522 1508 1500 1499 1501 1502 1498 1497 1496 1495 1495 1495 1495 1495 1495 1494 1495 1496 1497 1498 1499 1501 1502 1503 1504 1505 1505 1506 1507 1507 1508 1508 1509 1509 1510 1510 1510 1511 1511
1508 1512 1522 1527 1527 1526 1509 1498 1495 1499 1504 1496 1494 1494 1494 1494 1499 1495 1492 1492 1492 1492 1493 1494 1495 1497 1497 1498 1499 1500 1501 1502 1503 1504 1504 1505 1505 1505 1506 1506 1507 1507 1508 1508
1513 1516 1521 1524 1524 1515 1502 1496 1496 1509 1505 1494 1493 1492 1492 1492 1493 1491 1489 1489 1489 1489 1490 1491 1492 1493 1494 1495 1496 1497 1498 1498 1499 1500 1501 1501 1502 1502 1502 1502 1503 1503 1504 1504
1512 1516 1519 1521 1523 1516 1497 1496 1500 1500 1494 1492 1491 1490 1490 1489 1488 1487 1487 1486 1486 1486 1487 1488 1489 1490 1491 1492 1493 1493 1494 1495 1496 1496 1497 1497 1498 1498 1498 1498 1499 1499 1500 1500
1507 1507 1508 1509 1507 1497 1494 1494 1494 1493 1492 1491 1489 1488 1488 1487 1485 1485 1484 1483 1483 1484 1484 1485 1486 1487 1488 1489 1489 1490 1490 1491 1492 1492 1493 1493 1494 1494 1494 1494 1494 1495 1496 1496
1502 1500 1502 1502 1497 1495 1493 1492 1491 1491 1490 1488 1487 1486 1486 1484 1483 1482 1482 1481 1481 1481 1481 1482 1483 1483 1484 1485 1485 1486 1487 1488 1488 1488 1488 1489 1489 1490 1490 1490 1490 1491 1491 1491
1500 1499 1500 1500 1496 1493 1491 1490 1490 1489 1487 1486 1485 1484 1483 1482 1481 1481 1480 1478 1478 1478 1478 1479 1479 1480 1480 1481 1481 1482 1483 1483 1483 1483 1484 1484 1485 1485 1485 1486 1486 1486 1487 1487
1496 1497 1498 1497 1492 1493 1490 1488 1488 1487 1485 1484 1483 1482 1480 1480 1479 1478 1477 1477 1476 1475 1475 1476 1476 1476 1476 1477 1477 1477 1478 1478 1478 1478 1479 1479 1480 1480 1481 1481 1481 1482 1482 1483